Elazig, Turkey

10:44 AM +03 on September 19, 2019 (GMT +0300)
Elazig

Weather History for LTCA - August, 2019

Change the Weather History Date:

Thursday, August 22, 2019

  Actual Average Record
Temperature  
Mean Temperature 78 °F -  
Max Temperature 92 °F 90 °F 104 °F (2016)
Min Temperature 65 °F 60 °F 59 °F (1997)
Cooling Degree Days 14    
Growing Degree Days 28 (Base 50)    
Moisture  
Dew Point 51 °F    
Average Humidity 33    
Maximum Humidity 56    
Minimum Humidity 15    
Precipitation  
Precipitation 0.00 in - - ()
Sea Level Pressure  
Sea Level Pressure 29.81 in    
Wind  
Wind Speed 6 mph ()    
Max Wind Speed 15 mph    
Max Gust Speed 20 mph    
Visibility 8.9 miles    
Events      
Averages and records for this station are not official NWS values.
T = Trace of Precipitation, MM = Missing Value Source: Averaged Metar Reports

Daily Weather History Graph

Daily Weather History Graph

Search for Another Location

Airport or City:

Astronomy

Aug. 22, 2019 Rise Set
Actual Time 5:42 AM +03 7:08 PM +03
Civil Twilight 5:14 AM +03 7:36 PM +03
Nautical Twilight 4:41 AM +03 8:09 PM +03
Astronomical Twilight 4:06 AM +03 8:44 PM +03
Moon 10:50 PM +03 (8/22) 11:52 AM +03 (8/22)
Length of Visible Light 14h 21m
Length of Day
13h 25m
Waning Gibbous, 63% of the Moon is Illuminated
Aug 22
Waning Gibbous
Aug 23
Last Quarter
Aug 30
New
Sep 6
First Quarter
Sep 14
Full

Hourly Weather History & Observations

Time (+03) Temp. Heat Index Dew Point Humidity Pressure Visibility Wind Dir Wind Speed Gust Speed Precip Events Conditions
12:00 AM 75 °F - 49 °F 29% 29.65 in 12 mi SW 6.9 mph - -  
12:50 AM 75.2 °F - 50.0 °F 41% 29.89 in - SW 13.8 mph - N/A   Clear
1:50 AM 71.6 °F - 50.0 °F 46% 29.89 in - SW 9.2 mph - N/A   Clear
3:00 AM 72 °F - 50 °F 35% 29.66 in 12 mi SW 8.1 mph - -  
4:50 AM 69.8 °F - 51.8 °F 53% 29.89 in - WSW 3.5 mph - N/A   Clear
5:50 AM 66.2 °F - 50.0 °F 56% 29.89 in - SW 3.5 mph - N/A   Clear
6:00 AM 66 °F - 50 °F 46% 29.71 in 12 mi SW 3.5 mph - -  
6:50 AM 71.6 °F - 51.8 °F 50% 29.89 in - Calm Calm - N/A   Clear
7:50 AM 77.0 °F - 53.6 °F 44% 29.92 in - Variable 2.3 mph - N/A   Clear
8:50 AM 80.6 °F 80.3 °F 53.6 °F 39% 29.89 in - NNW 5.8 mph - N/A   Clear
9:00 AM 81 °F - 52 °F 26% 29.70 in 12 mi NNW 5.8 mph - -  
9:50 AM 82.4 °F 81.4 °F 53.6 °F 37% 29.89 in - NW 9.2 mph - N/A   Clear
10:50 AM 82.4 °F 81.4 °F 53.6 °F 37% 29.89 in 6.2 mi WNW 4.6 mph - N/A   Partly Cloudy
11:50 AM 86.0 °F - 51.8 °F 31% 29.89 in 6.2 mi NW 10.4 mph - N/A   Partly Cloudy
12:00 PM 87 °F - 52 °F 20% 29.68 in 12 mi NW 10.4 mph - -   Scattered Clouds
12:50 PM 89.6 °F - 51.8 °F 27% 29.86 in 6.2 mi Variable 6.9 mph 19.6 mph N/A   Scattered Clouds
1:50 PM 89.6 °F - 50.0 °F 26% 29.86 in 6.2 mi WNW 8.1 mph - N/A   Scattered Clouds
2:50 PM 91.4 °F - 50.0 °F 24% 29.83 in 6.2 mi NW 5.8 mph - N/A   Scattered Clouds
3:00 PM 90 °F - 49 °F 15% 29.64 in 12 mi NW 5.8 mph - -   Partly Cloudy
3:50 PM 91.4 °F - 48.2 °F 23% 29.83 in 6.2 mi Variable 5.8 mph - N/A   Scattered Clouds
4:50 PM 91.4 °F - 50.0 °F 24% 29.83 in 6.2 mi NW 9.2 mph - N/A   Scattered Clouds
5:50 PM 89.6 °F - 50.0 °F 26% 29.83 in 6.2 mi NW 4.6 mph - N/A   Scattered Clouds
6:00 PM 89 °F - 50 °F 17% 29.64 in 12 mi NW 4.6 mph - -   Partly Cloudy
6:50 PM 87.8 °F - 50.0 °F 27% 29.83 in 6.2 mi NNW 9.2 mph - N/A   Partly Cloudy
7:50 PM 80.6 °F - 50.0 °F 34% 29.83 in - WSW 3.5 mph - N/A   Clear
8:50 PM 82.4 °F - 46.4 °F 28% 29.86 in - Variable 1.2 mph - N/A   Clear
9:00 PM 82 °F - 46 °F 18% 29.66 in 12 mi WSW 1.2 mph - -  
9:50 PM 80.6 °F 80.5 °F 55.4 °F 42% 29.86 in - WNW 15.0 mph - N/A   Clear
10:50 PM 78.8 °F - 53.6 °F 42% 29.89 in - WSW 10.4 mph - N/A   Clear